TimeCST,TemperatureF,Dew PointF,Humidity,Sea Level PressureIn,VisibilityMPH,Wind Direction,Wind SpeedMPH,Gust SpeedMPH,PrecipitationIn,Events,Conditions,WindDirDegrees,DateUTC
12:52 AM,28.0,23.0,81,30.28,10.0,South,3.5,-,N/A,,Clear,180,2012-12-12 06:52:00
1:52 AM,26.1,21.9,84,30.28,10.0,South,4.6,-,N/A,,Clear,190,2012-12-12 07:52:00
2:52 AM,28.0,23.0,81,30.29,10.0,South,4.6,-,N/A,,Clear,170,2012-12-12 08:52:00
3:52 AM,26.1,21.9,84,30.29,10.0,Calm,Calm,-,N/A,,Clear,0,2012-12-12 09:52:00
4:52 AM,24.1,19.9,84,30.30,10.0,Calm,Calm,-,N/A,,Clear,0,2012-12-12 10:52:00
5:52 AM,25.0,21.0,85,30.32,10.0,Calm,Calm,-,N/A,,Clear,0,2012-12-12 11:52:00
6:52 AM,24.1,21.0,88,30.34,10.0,Calm,Calm,-,N/A,,Clear,0,2012-12-12 12:52:00
7:52 AM,26.1,24.1,92,30.35,7.0,Calm,Calm,-,N/A,,Clear,0,2012-12-12 13:52:00
8:52 AM,30.9,27.0,85,30.38,10.0,Calm,Calm,-,N/A,,Clear,0,2012-12-12 14:52:00
9:52 AM,37.0,28.0,70,30.39,10.0,South,3.5,-,N/A,,Clear,190,2012-12-12 15:52:00
10:52 AM,42.1,25.0,51,30.38,10.0,South,5.8,-,N/A,,Clear,190,2012-12-12 16:52:00
11:52 AM,46.0,25.0,44,30.36,10.0,SSE,3.5,-,N/A,,Clear,150,2012-12-12 17:52:00
12:52 PM,48.0,21.0,34,30.34,10.0,South,5.8,-,N/A,,Clear,180,2012-12-12 18:52:00
1:52 PM,48.9,21.0,33,30.33,10.0,SSW,5.8,-,N/A,,Clear,200,2012-12-12 19:52:00
2:52 PM,48.9,19.9,32,30.32,10.0,SSW,6.9,-,N/A,,Clear,200,2012-12-12 20:52:00
3:52 PM,46.9,23.0,39,30.32,10.0,SSE,6.9,-,N/A,,Clear,160,2012-12-12 21:52:00
4:52 PM,41.0,23.0,49,30.32,10.0,SSE,4.6,-,N/A,,Clear,150,2012-12-12 22:52:00
5:52 PM,37.9,24.1,57,30.35,10.0,SSE,4.6,-,N/A,,Clear,160,2012-12-12 23:52:00
6:52 PM,36.0,25.0,64,30.36,10.0,SSW,4.6,-,N/A,,Clear,200,2012-12-13 00:52:00
7:52 PM,35.1,24.1,64,30.35,10.0,SSE,5.8,-,N/A,,Clear,150,2012-12-13 01:52:00
8:52 PM,30.0,25.0,82,30.36,10.0,Calm,Calm,-,N/A,,Clear,0,2012-12-13 02:52:00
9:52 PM,28.9,24.1,82,30.35,10.0,Calm,Calm,-,N/A,,Clear,0,2012-12-13 03:52:00
10:52 PM,26.1,23.0,88,30.35,10.0,SSE,4.6,-,N/A,,Clear,160,2012-12-13 04:52:00
11:52 PM,26.1,23.0,88,30.36,10.0,Calm,Calm,-,N/A,,Clear,0,2012-12-13 05:52:00